METEOR 2-2

Satellite information

Favourite Embed

Satellite Type and Status

PAYLOADIN ORBIT

Key statistics

Satellite METEOR 2-2 at a glance.

Uptime

17873

Days in orbit

Revolutions

≈ 14.0

Per day

Orbit

LEO

Low Earth Orbit

Inclination

81.3

Latest

Satellite identification and parameters

Extended collection of information and parameters for METEOR 2-2.

Object identification

Identified? True

Debris? False

Object name: METEOR 2-2

International designator: 1977-002A

Object number (NORAD): 9661

Object ID (CCSDS): 9661

Country: COMMONWEALTH OF INDEPENDENT STATES (CIS)

Current information (Y/N): Y

RCS size: LARGE

Orbital parameters

Period: 102.551 minutes

Inclination: 81.2651 deg

SMA: 7257.479 km

Apoapsis: 887.067 km

Periapsis: 871.621 km

RAAN: 273.7487 deg

Eccentricy: 0.0010641

Argument of periapsis: 151.2405 deg

Mean anomaly: 208.9352 deg

Mean motion: 14.04184237 rev/day

Mean motion (dot): 0.00000304 rev/day2

B* drag term: 0.00018397721 1/REarth

Two-line elements (TLE)

Creation date: Dec. 12, 2025, 10:14 a.m.

Reference frame: TEME

Reference center: EARTH

Epoch: Dec. 12, 2025, 6:30 a.m. UTC

TLE line 0: 0 METEOR 2-2

TLE line 1: 1 09661U 77002A 25346.27091422 .00000304 00000-0 18398-3 0 9994

TLE line 2: 2 09661 81.2651 273.7487 0010641 151.2405 208.9352 14.04184237504108

Live tracking on map

Real-time ground track for satellite METEOR 2-2.

In-orbit conjunctions

A list of the most updated potential collisions computed for object METEOR 2-2.

Target Orbit TCA Probability of collision Miss distance Type
FENGYUN 1C DEB MEO 2025-10-31 22:03:22 0.0007841391 146.0 (m) DEBRIS
CZ-6A DEB SSO 2025-10-14 12:09:31 0.0009552741 652.0 (m) DEBRIS
THOR ABLESTAR DEB LEO 2025-05-15 01:51:25 0.0006260059 851.0 (m) DEBRIS
DMSP 5D-2 F13 DEB SSO 2025-04-11 22:06:51 0.0005777975 168.0 (m) DEBRIS
FENGYUN 1C DEB SSO 2025-02-18 08:37:37 0.0001174307 476.0 (m) DEBRIS

Associated space launch

Second generation soviet meteorological satellite

METEOR 2-2 was lifted into orbit during the mission ‘Vostok 8A92M | Meteor-2 2’, on board a Vostok 8A92M space rocket.

The launch took place on Jan. 6, 1977, 11:17 p.m. from 43/3 (43L).

For more information about the launch, click the button.

Launch to space Vostok 8A92M | Meteor-2 2
Vostok 8A92M | Meteor-2 2

Agency: N/A

Status: Launch Successful

Launch date: Jan. 6, 1977, 11:17 p.m. UTC

Rocket: Vostok 8A92M

Launch pad: 43/3 (43L)

Location: Plesetsk Cosmodrome, Russian Federation

...

Latest news about this satellite

There are no fresh news available about this satellite. Check back as we update our databases every day.


Newsletter sign-up

Weekly statistics, charts and insights to help you stay on top of the space industry.